FW8814 Weather Reports


Display with metric or nautical units.
time (UTC)temp
F
wind
direction
speed
MPH
gust
MPH
rain 1hr
in
rain 24hr
in
rain mn
in
humidity
%
barometer
mb
20210619063018 78 118 2.0 3.0 0.00 0.00 0.00 73 1011.7
20210619062018 78 116 2.0 4.0 0.00 0.00 0.00 73 1011.8
20210619061019 79 138 2.0 5.0 0.00 0.00 0.00 71 1011.8
20210619060019 79 135 1.0 3.0 0.00 0.00 0.00 71 1011.8
20210619055020 80 147 2.0 3.0 0.00 0.00 0.00 70 1011.9
20210619054018 80 153 2.0 5.0 0.00 0.00 0.00 70 1012.0
20210619053019 80 158 2.0 5.0 0.00 0.00 0.00 69 1012.0
20210619052016 80 154 2.0 5.0 0.00 0.00 0.00 69 1012.0
20210619051018 80 138 1.0 5.0 0.00 0.00 0.00 69 1012.0
20210619050019 80 143 1.0 3.0 0.00 0.00 0.00 67 1012.0
20210619045016 81 141 2.0 4.0 0.00 0.00 0.00 66 1011.8
20210619044017 81 132 2.0 4.0 0.00 0.00 0.00 64 1011.8
20210619043017 81 133 3.0 7.0 0.00 0.00 0.00 62 1011.7
20210619042019 82 134 3.0 7.0 0.00 0.00 0.00 61 1011.7
20210619041017 82 140 3.0 7.0 0.00 0.00 0.00 60 1011.7
20210619040019 82 138 4.0 7.0 0.00 0.00 0.00 59 1011.7
20210619035017 82 130 4.0 9.0 0.00 0.00 0.00 59 1011.7
20210619034018 83 121 4.0 8.0 0.00 0.00 0.00 59 1011.7
20210619033019 83 128 4.0 6.0 0.00 0.00 0.00 61 1011.7
20210619032019 82 122 3.0 7.0 0.00 0.00 0.00 62 1011.7
20210619031019 82 126 3.0 6.0 0.00 0.00 0.00 65 1011.5
20210619030019 82 131 2.0 5.0 0.00 0.00 0.00 66 1011.5
20210619025020 83 129 3.0 6.0 0.00 0.00 0.00 65 1011.3
20210619024019 83 126 3.0 6.0 0.00 0.00 0.00 63 1011.2
20210619023019 84 101 3.0 6.0 0.00 0.00 0.00 63 1011.1
20210619022017 84 97 3.0 6.0 0.00 0.00 0.00 62 1011.0
20210619021016 84 97 3.0 5.0 0.00 0.00 0.00 61 1010.9
20210619020020 85 102 3.0 5.0 0.00 0.00 0.00 60 1010.9
20210619015017 85 108 3.0 6.0 0.00 0.00 0.00 60 1010.8
20210619014017 85 108 3.0 7.0 0.00 0.00 0.00 60 1010.7
20210619013017 86 99 4.0 10.0 0.00 0.00 0.00 58 1010.5
20210619012019 86 104 4.0 8.0 0.00 0.00 0.00 56 1010.4
20210619011018 86 96 3.0 7.0 0.00 0.00 0.00 56 1010.3
20210619010018 87 102 3.0 7.0 0.00 0.00 0.00 56 1010.2
20210619005018 87 89 3.0 6.0 0.00 0.00 0.00 54 1010.2
20210619004020 87 96 4.0 9.0 0.00 0.00 0.00 53 1010.1
20210619003020 88 97 5.0 7.0 0.00 0.00 0.00 53 1010.0
20210619002018 88 89 5.0 7.0 0.00 0.00 0.00 52 1010.0
20210619001018 88 93 4.0 7.0 0.00 0.00 0.00 50 1010.0
20210619000020 89 93 4.0 10.0 0.00 0.00 0.00 50 1010.0
20210618235016 89 86 4.0 8.0 0.00 0.00 0.00 48 1010.1
20210618234016 89 87 6.0 11.0 0.00 0.00 0.00 47 1010.1
20210618233018 89 93 5.0 10.0 0.00 0.00 0.00 48 1010.2
20210618232017 89 87 6.0 10.0 0.00 0.00 0.00 47 1010.2
20210618231017 89 94 5.0 12.0 0.00 0.00 0.00 51 1010.1
20210618230019 89 86 5.0 13.0 0.00 0.00 0.00 53 1010.2
20210618225018 89 88 6.0 11.0 0.00 0.00 0.00 51 1010.2
20210618224018 89 90 5.0 10.0 0.00 0.00 0.00 52 1010.2
20210618223018 89 93 6.0 11.0 0.00 0.00 0.00 53 1010.2
20210618222020 89 101 6.0 13.0 0.00 0.00 0.00 53 1010.2
20210618221016 89 100 6.0 11.0 0.00 0.00 0.00 54 1010.2
20210618220019 89 101 5.0 9.0 0.00 0.00 0.00 54 1010.2
20210618215017 90 107 5.0 10.0 0.00 0.00 0.00 53 1010.2
20210618214017 89 107 4.0 9.0 0.00 0.00 0.00 54 1010.2
20210618213017 90 94 3.0 7.0 0.00 0.00 0.00 53 1010.3
20210618212019 89 130 4.0 7.0 0.00 0.00 0.00 55 1010.3
20210618211020 90 115 4.0 8.0 0.00 0.00 0.00 54 1010.4
20210618210017 89 116 4.0 7.0 0.00 0.00 0.00 54 1010.6
20210618205017 90 107 5.0 9.0 0.00 0.00 0.00 53 1010.6
20210618204018 90 135 4.0 8.0 0.00 0.00 0.00 54 1010.7
20210618203019 89 99 5.0 10.0 0.00 0.00 0.00 54 1010.8
20210618202018 89 171 4.0 7.0 0.00 0.00 0.00 54 1010.9
20210618201018 89 163 4.0 8.0 0.00 0.00 0.00 55 1011.0
20210618200019 89 149 3.0 8.0 0.00 0.00 0.00 56 1011.2
20210618195018 89 132 4.0 9.0 0.00 0.00 0.00 55 1011.2
20210618194017 89 148 5.0 9.0 0.00 0.00 0.00 56 1011.3
20210618193019 89 170 3.0 7.0 0.00 0.00 0.00 56 1011.5
20210618192019 89 175 5.0 9.0 0.00 0.00 0.00 56 1011.7
20210618191019 88 178 3.0 7.0 0.00 0.00 0.00 58 1011.8
20210618190018 88 187 4.0 9.0 0.00 0.00 0.00 56 1011.9
20210618185018 88 148 5.0 9.0 0.00 0.00 0.00 58 1012.0
20210618184019 88 186 3.0 7.0 0.00 0.00 0.00 59 1012.1
20210618183017 88 170 4.0 9.0 0.00 0.00 0.00 58 1012.3
20210618182018 88 171 5.0 9.0 0.00 0.00 0.00 59 1012.5
20210618181018 88 167 4.0 7.0 0.00 0.00 0.00 58 1012.6
20210618180019 87 158 4.0 7.0 0.00 0.00 0.00 60 1012.7
20210618175017 87 160 4.0 6.0 0.00 0.00 0.00 60 1012.7
20210618174018 87 152 4.0 9.0 0.00 0.00 0.00 60 1012.9
20210618173018 86 173 3.0 8.0 0.00 0.00 0.00 61 1012.9
20210618172017 86 140 3.0 7.0 0.00 0.00 0.00 61 1013.1
20210618171018 86 167 5.0 10.0 0.00 0.00 0.00 61 1013.2
20210618170018 86 133 4.0 8.0 0.00 0.00 0.00 60 1013.2
20210618165018 85 127 4.0 8.0 0.00 0.00 0.00 62 1013.2
20210618164018 85 137 5.0 9.0 0.00 0.00 0.00 61 1013.3
20210618163016 85 146 4.0 9.0 0.00 0.00 0.00 61 1013.3
20210618162016 85 168 4.0 8.0 0.00 0.00 0.00 61 1013.4
20210618161019 85 156 4.0 8.0 0.00 0.00 0.00 61 1013.4
20210618160019 85 189 4.0 9.0 0.00 0.00 0.00 62 1013.5
20210618155016 84 184 4.0 8.0 0.00 0.00 0.00 63 1013.5
20210618154016 84 167 4.0 7.0 0.00 0.00 0.00 63 1013.6
20210618153020 83 161 4.0 11.0 0.00 0.00 0.00 63 1013.6
20210618152017 83 192 3.0 7.0 0.00 0.00 0.00 64 1013.7
20210618151017 83 186 3.0 7.0 0.00 0.00 0.00 65 1013.8
20210618150018 82 187 5.0 9.0 0.00 0.00 0.00 65 1013.8
20210618145017 82 173 4.0 9.0 0.00 0.00 0.00 67 1014.0
20210618144018 82 172 6.0 11.0 0.00 0.00 0.00 67 1014.1
20210618143018 81 171 5.0 10.0 0.00 0.00 0.00 69 1014.2
20210618142017 82 188 6.0 13.0 0.00 0.00 0.00 69 1014.2
20210618141019 81 154 6.0 10.0 0.00 0.00 0.00 69 1014.1
20210618140018 81 179 4.0 10.0 0.00 0.00 0.00 71 1014.2
20210618135019 81 165 4.0 7.0 0.00 0.00 0.00 72 1014.2
20210618134018 81 160 5.0 10.0 0.00 0.00 0.00 72 1014.2
20210618133018 81 162 3.0 7.0 0.00 0.00 0.00 72 1014.2
20210618132017 80 165 5.0 10.0 0.00 0.00 0.00 72 1014.2
20210618131018 80 166 5.0 10.0 0.00 0.00 0.00 73 1014.2
20210618130020 80 186 5.0 10.0 0.00 0.00 0.00 73 1014.1
20210618125018 80 160 3.0 6.0 0.00 0.00 0.00 76 1014.1
20210618124019 79 167 3.0 6.0 0.00 0.00 0.00 77 1014.2
20210618123019 79 171 2.0 6.0 0.00 0.00 0.00 78 1014.2
20210618122015 78 164 3.0 7.0 0.00 0.00 0.00 78 1014.2
20210618121019 78 155 2.0 5.0 0.00 0.00 0.00 80 1014.1
20210618120018 77 156 1.0 3.0 0.00 0.00 0.00 82 1014.1
20210618115016 77 153 1.0 3.0 0.00 0.00 0.00 82 1014.1
20210618114016 77 145 3.0 4.0 0.00 0.00 0.00 82 1014.0
20210618113017 77 159 2.0 3.0 0.00 0.00 0.00 82 1014.0
20210618112021 77 142 2.0 4.0 0.00 0.00 0.00 81 1013.9
20210618111016 78 147 1.0 3.0 0.00 0.00 0.00 81 1013.8
20210618110017 78 148 2.0 4.0 0.00 0.00 0.00 80 1013.8
20210618105018 78 148 2.0 4.0 0.00 0.00 0.00 79 1013.7
20210618104017 79 162 2.0 3.0 0.00 0.00 0.00 79 1013.7
20210618103017 79 172 2.0 4.0 0.00 0.00 0.00 80 1013.7
20210618102018 79 167 2.0 5.0 0.00 0.00 0.00 79 1013.7
20210618101016 79 172 3.0 7.0 0.00 0.00 0.00 81 1013.7
20210618100018 79 159 3.0 7.0 0.00 0.00 0.00 82 1013.7
20210618095019 79 154 3.0 6.0 0.00 0.00 0.00 82 1013.7
20210618094017 79 149 4.0 7.0 0.00 0.00 0.00 82 1013.7
20210618093017 79 158 2.0 3.0 0.00 0.00 0.00 83 1013.6
20210618092017 80 153 2.0 4.0 0.00 0.00 0.00 82 1013.5
20210618091017 80 157 3.0 6.0 0.00 0.00 0.00 81 1013.4
20210618090019 80 161 3.0 6.0 0.00 0.00 0.00 82 1013.3
20210618085019 80 147 2.0 5.0 0.00 0.00 0.00 81 1013.4
20210618084018 80 153 3.0 6.0 0.00 0.00 0.00 80 1013.3
20210618083019 80 167 3.0 6.0 0.00 0.00 0.00 80 1013.3
20210618082018 81 154 2.0 5.0 0.00 0.00 0.00 80 1013.3
20210618081018 81 167 3.0 7.0 0.00 0.00 0.00 80 1013.3
20210618080020 81 153 1.0 3.0 0.00 0.00 0.00 80 1013.4
20210618075019 81 165 2.0 4.0 0.00 0.00 0.00 80 1013.4
20210618074016 81 168 3.0 7.0 0.00 0.00 0.00 79 1013.4
20210618073017 82 163 3.0 7.0 0.00 0.00 0.00 77 1013.4
20210618072021 82 168 4.0 9.0 0.00 0.00 0.00 77 1013.4
20210618071019 82 161 1.0 3.0 0.00 0.00 0.00 79 1013.4
20210618070018 82 159 2.0 4.0 0.00 0.00 0.00 78 1013.5
20210618065016 82 171 3.0 7.0 0.00 0.00 0.00 78 1013.5
20210618064017 82 158 3.0 6.0 0.00 0.00 0.00 78 1013.5